Location: Dehesa de la Cepeda
(40.6574°N, 4.3013°W)
Time: 19:57:16
(UTC+00:00)

Vanguard 2 Rocket - Pass Details

Date: 10 August 2021
Orbit: 556 x 3324 km, 32.9° (Epoch: 19 September)

Event Time Altitude Azimuth Distance (km) Brightness Sun altitude
Rises 07:55:32 0° 263° (W) 3,289 9.2 27.5°
Reaches altitude 10° 07:58:37 10° 250° (WSW) 2,099 8.4 28.1°
Maximum altitude 08:02:18 24° 195° (SSW) 1,203 7.6 28.8°
Drops below altitude 10° 08:05:33 10° 138° (SE) 1,823 9.3 29.4°
Sets 08:08:01 0° 124° (SE) 2,751 10.3 29.9°
